This is the latest recevied weather packets stored in our database for station/object KC9GSD. If no packets are shown the sender has not sent any weather packets the latest 10 day(s).
| Time | Temp. | Humidity | Pressure | Rain* | Wind** | Luminosity | Snow |
|---|---|---|---|---|---|---|---|
| 1777880367 | 7.78° C | 87% | 1016.7 hPa | 0 mm | - | 0 W/m² | - |
| 1777880066 | 7.78° C | 88% | 1016.6 hPa | 0 mm | - | 0 W/m² | - |
| 1777879764 | 7.78° C | 87% | 1016.8 hPa | 0 mm | - | 0 W/m² | - |
| 1777879460 | 7.78° C | 87% | 1016.7 hPa | 0 mm | - | 0 W/m² | - |
| 1777879157 | 7.78° C | 87% | 1016.8 hPa | 0 mm | - | 0 W/m² | - |
| 1777878854 | 7.78° C | 88% | 1016.6 hPa | 0 mm | - | 0 W/m² | - |
| 1777878552 | 7.78° C | 87% | 1016.6 hPa | 0 mm | - | 0 W/m² | - |
| 1777878248 | 7.78° C | 87% | 1016.5 hPa | 0 mm | - | 0 W/m² | - |
| 1777877944 | 7.78° C | 85% | 1016.7 hPa | 0 mm | - | 0 W/m² | - |
| 1777877641 | 7.78° C | 86% | 1016.9 hPa | 0 mm | - | 0 W/m² | - |
| 1777877337 | 7.78° C | 85% | 1017.1 hPa | 0 mm | - | 0 W/m² | - |
| 1777877035 | 7.78° C | 84% | 1017.1 hPa | 0 mm | - | 0 W/m² | - |
| 1777876732 | 8.33° C | 84% | 1017.2 hPa | 0 mm | - | 0 W/m² | - |
| 1777876430 | 8.33° C | 82% | 1017.3 hPa | 0 mm | - | 0 W/m² | - |
| 1777876126 | 8.33° C | 83% | 1017.3 hPa | 0 mm | - | 0 W/m² | - |
| 1777875822 | 8.33° C | 82% | 1017.3 hPa | 0 mm | - | 0 W/m² | - |
| 1777875518 | 8.33° C | 83% | 1017.5 hPa | 0 mm | - | 0 W/m² | - |
| 1777875215 | 8.89° C | 84% | 1017.5 hPa | 0 mm | - | 0 W/m² | - |
| 1777874912 | 8.89° C | 82% | 1017.4 hPa | 0 mm | - | 0 W/m² | - |
| 1777874608 | 8.89° C | 83% | 1017.3 hPa | 0 mm | - | 0 W/m² | - |
| 1777874306 | 8.89° C | 85% | 1017.5 hPa | 0 mm | - | 0 W/m² | - |
| 1777874003 | 9.44° C | 83% | 1017.5 hPa | 0 mm | - | 0 W/m² | - |
| 1777873700 | 8.89° C | 83% | 1017.5 hPa | 0 mm | - | 0 W/m² | - |
| 1777873398 | 8.89° C | 79% | 1017.6 hPa | 0 mm | - | 0 W/m² | - |
| 1777873094 | 8.89° C | 79% | 1017.7 hPa | 0 mm | - | 0 W/m² | - |
* Rain latest hour (hover to see other rain measurements)
** Current wind speed in m/s (hover to see current wind gust speed)